Flag for Canada Weather past 2 weeks in Fort Smith, Northwest Territories, Canada

Now
-18 °F

Clear.


Feels Like: -35 °F
Forecast: -18 / 7 °F
Wind: 7 mph from Southeast

Location: Fort Smith

Current Time: Mar 4, 2015 at 4:34:50 AM

Latest Report: Mar 4, 2015 at 3:00 AM


Visibility: 15 mi

Pressure: 30.31 "Hg

Humidity: 69%

Dew point: -26 °F

Location of Fort SmithLocation

Historic Weather in Fort Smith — Graph

°F

Fort Smith temperature yesterday

Maximum temperature yesterday: -6 °F (at 4:00 PM)
Minimum temperature yesterday: -24 °F (at 10:00 PM)
Average temperature yesterday: -14 °F

Past Weeks' High & Low Weather Summary

 TemperatureHumidityPressure
High23 °F (Feb 28, 2:00 AM)93% (Feb 27, 11:00 PM)30.85 "Hg (Feb 27, 11:00 PM)
Low-31 °F (Feb 21, 7:00 AM)41% (Feb 28, 3:00 PM)29.77 "Hg (Mar 1, 5:00 PM)
Average-1 °F72%30.32 "Hg
* Reported Feb 17 3:00 AM — Mar 4 3:00 AM, Fort Smith, Weather by CustomWeather, © 2015

Note: Actual official high and low records may vary slightly from our data, if they occured in-between our weather recording intervals... More about our weather records

Advertising

Fort Smith weather history for previous 24 hours

 ConditionsComfort  
Time TempWeatherWind HumidityBarometerVisibility
3:00 AM
Wed, Mar 4
-18 °FClear.7 mph69%30.31 "Hg15 mi
2:00 AM-18 °FClear.3 mph69%30.33 "Hg15 mi
1:00 AM-20 °FClear.5 mph68%30.34 "Hg15 mi
12:00 AM-24 °FClear.5 mph75%30.37 "Hg15 mi
11:00 PM
Tue, Mar 3
-22 °FClear.3 mph68%30.40 "Hg15 mi
10:00 PM-24 °FClear.5 mph75%30.40 "Hg15 mi
9:00 PM-20 °FClear.No wind68%30.43 "Hg15 mi
8:00 PM-18 °FClear.2 mph69%30.44 "Hg15 mi
7:00 PM-15 °FClear.2 mph63%30.45 "Hg15 mi
6:00 PM-8 °FClear.2 mph53%30.46 "Hg15 mi
5:00 PM-8 °FSunny.8 mph53%30.47 "Hg15 mi
4:00 PM-6 °FSunny.8 mph49%30.47 "Hg15 mi
3:00 PM-8 °FSunny.6 mph53%30.48 "Hg15 mi
2:00 PM-8 °FSunny.8 mph53%30.49 "Hg15 mi
1:00 PM-9 °FSunny.10 mph53%30.50 "Hg15 mi
12:00 PM-11 °FSunny.5 mph52%30.51 "Hg15 mi
11:00 AM-13 °FSunny.8 mph57%30.50 "Hg15 mi
10:00 AM-17 °FSunny.5 mph69%30.50 "Hg15 mi
9:00 AM-18 °FSunny.7 mph69%30.48 "Hg15 mi
8:00 AM-20 °FSunny.6 mph75%30.47 "Hg15 mi
7:00 AM-20 °FClear.5 mph75%30.46 "Hg15 mi
6:00 AM-18 °FClear.7 mph69%30.45 "Hg15 mi
5:00 AM-18 °FClear.6 mph83%30.44 "Hg15 mi
4:00 AM-17 °FClear.6 mph76%30.43 "Hg15 mi
Weather by CustomWeather, © 2015

See weather overviewHow to use our weather pages